BRITE-PL2 (HEWELIUSZ)

Last updated on Tue Jul 08 2025 00:03:30 GMT+0000 (Coordinated Universal Time)

1 40119U 14049B 25187.83784821 .00001824 00000+0 18234-3 0 9992 2 40119 97.8921 293.1353 0014885 169.0676 191.0869 14.92655621589894
UTC large
Height (km)
Speed (km/s)
/
Latitude / Longitude
Inclination (degrees)
Orbital Period (minutes)
Azimuth
Elevation
Range (km)
Doppler Factor

Next 0 passes for location: London (51.5072 / 0.1276)

Sorry there are no passes over London.